Hourly Data Report for July 29, 2021

GORE BAY CLIMATE
ONTARIO
Current Station Operator: ECCC - MSC

45°53'00.000" N
82°34'00.000" W
188.60 m
6092920
71956
TZE

Download Data

Hourly Data (July 2021)
Hourly Data Report for July 29, 2021
TIME
LST
Temp Definition
°C
Dew Point Definition
°C
Rel Hum Definition
%
Precip. Amount Definition
mm

Wind Dir Definition
10's deg

Wind Spd Definition
km/h
Visibility Definition
km
Stn Press Definition
kPa
Hmdx Definition


Wind Chill Definition


Weather Definition


00:00 20.4 14.2 68 0.0 12 1   99.01     LegendNANA
01:00 20.6 15.7 74 0.0 0 1   98.88 25   LegendNANA
02:00 19.0 17.3 90 3.2 27 10   98.86     LegendNANA
03:00 17.8 16.4 92 14.5 25 3   98.86     LegendNANA
04:00 17.2 15.7 91 10.4 11 5   98.76     LegendNANA
05:00 17.5 16.0 91 0.7 10 4   98.63     LegendNANA
06:00 17.5 16.2 92 0.0 0 1   98.59     LegendNANA
07:00 19.1 17.1 88 0.0 0 1   98.62     LegendNANA
08:00 19.1 17.2 89 0.0 16 1   98.66     LegendNANA
09:00 19.3 17.1 87 0.0 0 1   98.67     LegendNANA
10:00 19.8 17.3 85 0.0   0   98.68     LegendNANA
11:00 20.7 17.3 81 0.0 15 2   98.70 26   LegendNANA
12:00 20.8 17.2 80 0.0 17 1   98.73 26   LegendNANA
13:00 21.6 17.3 76 0.0 24 2   98.75 27   LegendNANA
14:00 21.9 17.0 74 0.0 26 7   98.77 27   LegendNANA
15:00 23.4 16.6 65 0.0 26 6   98.77 28   LegendNANA
16:00 23.8 16.7 64 0.0 27 12   98.78 29   LegendNANA
17:00 24.2 15.2 57 0.0 25 4   98.78 28   LegendNANA
18:00 22.4 14.5 61 0.0 24 2   98.84 26   LegendNANA
19:00 21.7 13.1 58 0.0 25 4   98.90 25   LegendNANA
20:00 20.2 13.4 65 0.0 25 2   98.97     LegendNANA
21:00 19.9 12.8 64 0.0 25 2   99.08     LegendNANA
22:00 19.1 11.6 62 0.0 12 6   99.18     LegendNANA
23:00 17.8 10.6 63 0.0 12 5   99.27     LegendNANA

Notes on Data Quality.

Legend

  • E = Estimated
  • M = Missing
  • NA = Not Available*
  • [empty] = Indicates an unobserved value
Date modified: